West Point Lake Weather Center

Moon Phase Calendar



West Point Lake Water Level
Online Cameras

 


      

Current Conditions in Rockwell Estates
1/23/2022 1:18:38 AM

27°F
Feels Like 27
Clear
Humidity
86%
Pressure
30.21"
Wind
0
Dew Point
24°F
UV Index
0/10 (Low)
Visibility
6 mi

Hourly Forecast

Date & Time Sun, Jan 23
1:00 AM
Sun, Jan 23
2:00 AM
Sun, Jan 23
3:00 AM
Sun, Jan 23
4:00 AM
Sun, Jan 23
5:00 AM
Sun, Jan 23
6:00 AM
Sun, Jan 23
7:00 AM
Sun, Jan 23
8:00 AM
Sun, Jan 23
9:00 AM
Sun, Jan 23
10:00 AM
Sun, Jan 23
11:00 AM
Sun, Jan 23
12:00 PM
Sun, Jan 23
1:00 PM
Sun, Jan 23
2:00 PM
Sun, Jan 23
3:00 PM
Sun, Jan 23
4:00 PM
Sun, Jan 23
5:00 PM
Sun, Jan 23
6:00 PM
Sun, Jan 23
7:00 PM
Sun, Jan 23
8:00 PM
Sun, Jan 23
9:00 PM
Sun, Jan 23
10:00 PM
Sun, Jan 23
11:00 PM
Mon, Jan 24
12:00 AM
Mon, Jan 24
1:00 AM
Mon, Jan 24
2:00 AM
Mon, Jan 24
3:00 AM
Mon, Jan 24
4:00 AM
Mon, Jan 24
5:00 AM
Mon, Jan 24
6:00 AM
Mon, Jan 24
7:00 AM
Mon, Jan 24
8:00 AM
Mon, Jan 24
9:00 AM
Mon, Jan 24
10:00 AM
Mon, Jan 24
11:00 AM
Mon, Jan 24
12:00 PM
Mon, Jan 24
1:00 PM
Mon, Jan 24
2:00 PM
Mon, Jan 24
3:00 PM
Mon, Jan 24
4:00 PM
Mon, Jan 24
5:00 PM
Mon, Jan 24
6:00 PM
Mon, Jan 24
7:00 PM
Mon, Jan 24
8:00 PM
Mon, Jan 24
9:00 PM
Mon, Jan 24
10:00 PM
Mon, Jan 24
11:00 PM
Tue, Jan 25
12:00 AM
Condition
Clear

Clear

Clear

Clear

Clear

Clear

Clear

Clear

Clear

Clear

Clear

Clear

Clear

Clear

Clear

Clear

Clear

Clear

Clear

Clear

Clear

Clear

Clear

Clear

Clear

Clear

Clear

Clear

Clear

Clear

Clear

Clear

Clear

Clear

Clear

Clear

Clear

Clouds

Clouds

Clouds

Clouds

Clouds

Clouds

Clouds

Clouds

Clouds

Clouds

Clouds
Temperature 27°F28°F28°F27°F27°F27°F27°F27°F33°F38°F43°F46°F49°F50°F50°F50°F47°F40°F37°F35°F34°F33°F33°F32°F32°F32°F32°F31°F31°F31°F31°F32°F37°F43°F47°F50°F53°F54°F54°F54°F51°F45°F43°F42°F42°F42°F42°F41°F
Feels Like 23°F23°F22°F22°F22°F22°F22°F22°F28°F34°F38°F42°F45°F46°F47°F46°F43°F36°F32°F31°F29°F28°F28°F27°F27°F27°F27°F27°F27°F28°F27°F32°F37°F41°F45°F47°F50°F51°F52°F51°F49°F42°F41°F39°F39°F39°F39°F39°F
Cloudiness 0%0%0%1%2%3%2%0%0%1%0%0%0%0%0%0%0%0%0%0%3%2%1%1%1%0%0%0%0%0%0%0%0%0%0%0%0%13%42%58%69%75%79%100%100%100%100%100%
Visibility 6 mi6 mi6 mi6 mi6 mi6 mi6 mi6 mi6 mi6 mi6 mi6 mi6 mi6 mi6 mi6 mi6 mi6 mi6 mi6 mi6 mi6 mi6 mi6 mi6 mi6 mi6 mi6 mi6 mi6 mi6 mi6 mi6 mi6 mi6 mi6 mi6 mi6 mi6 mi6 mi6 mi6 mi6 mi6 mi6 mi6 mi6 mi6 mi
Precipitation 0%0%0%0%0%0%0%0%0%0%0%0%0%0%0%0%0%0%0%0%0%0%0%0%0%0%0%0%0%0%0%0%0%0%0%0%0%0%0%0%0%0%0%0%0%0%0%0%
Humidity 86%82%78%72%66%58%57%56%43%33%28%29%32%34%36%39%47%62%69%73%76%78%80%82%83%85%86%87%88%89%89%88%74%63%56%52%50%49%50%52%63%76%80%81%81%80%81%83%
Dew Point 24°F23°F22°F20°F18°F14°F13°F13°F13°F12°F12°F16°F20°F23°F24°F25°F28°F28°F28°F27°F27°F27°F27°F27°F27°F28°F28°F28°F28°F28°F28°F28°F29°F31°F32°F33°F34°F35°F36°F36°F38°F38°F37°F37°F36°F36°F36°F36°F
Pressure 30.21"30.21"30.21"30.24"30.21"30.21"30.21"30.21"30.21"30.18"30.18"30.15"30.12"30.06"30.03"30.03"30.03"30.03"30.06"30.09"30.06"30.06"30.06"30.06"30.06"30.03"30.03"30.03"30.03"30.03"30.06"30.06"30.03"30.03"30.03"30"29.97"29.94"29.94"29.91"29.94"29.97"29.97"29.97"29.97"29.97"29.97"29.97"
Wind Speed 3.8 mph4.1 mph4.4 mph4.2 mph3.8 mph3.8 mph4 mph4.4 mph5.1 mph6 mph7.5 mph8.6 mph9.2 mph10 mph10.3 mph9.7 mph8.4 mph5.7 mph5.8 mph5.5 mph5.3 mph5.2 mph5.2 mph5.2 mph5.1 mph4.9 mph4.3 mph4.4 mph3.8 mph3.4 mph3.8 mph2.8 mph2.7 mph3.6 mph4.6 mph5.5 mph6.7 mph7 mph7.8 mph7.2 mph6.3 mph5.3 mph4.7 mph4.7 mph4.7 mph4.3 mph4.2 mph3.9 mph
Wind
Direction
317°
NW
312°
NW
313°
NW
304°
NW
308°
NW
294°
WNW
275°
W
281°
W
288°
WNW
284°
WNW
284°
WNW
288°
WNW
280°
W
283°
WNW
280°
W
278°
W
280°
W
279°
W
281°
W
281°
W
280°
W
279°
W
275°
W
275°
W
280°
W
283°
WNW
280°
W
277°
W
299°
WNW
289°
WNW
263°
W
276°
W
276°
W
266°
W
262°
W
249°
WSW
252°
WSW
254°
WSW
245°
WSW
249°
WSW
237°
WSW
230°
SW
219°
SW
224°
SW
229°
SW
229°
SW
236°
SW
213°
SSW

Daily Forecast

Date High Low Precip. Humidity
Today
Jan 23

Clear
50 °F
27 °F
0%
29%
Monday
Jan 24

Clear
54 °F
31 °F
0%
52%
Tuesday
Jan 25

Clouds
52 °F
41 °F
0%
69%
Wednesday
Jan 26

Clear
48 °F
33 °F
0%
35%
Thursday
Jan 27

Clouds
53 °F
30 °F
0%
47%
Friday
Jan 28

Clouds
50 °F
31 °F
0%
48%
Saturday
Jan 29

Clear
43 °F
24 °F
0%
26%
Sunday
Jan 30

Clouds
49 °F
26 °F
0%
21%
Monday
Jan 31

Rain
40 °F
32 °F
100%
88%
Tuesday
Feb 1

Clear
52 °F
31 °F
0%
51%
Wednesday
Feb 2

Clouds
58 °F
34 °F
0%
42%
Thursday
Feb 3

Clouds
58 °F
44 °F
0%
59%
Friday
Feb 4

Clouds
70 °F
47 °F
0%
58%
Saturday
Feb 5

Clouds
69 °F
54 °F
1%
66%
Sunday
Feb 6

Rain
57 °F
41 °F
87%
58%
Monday
Feb 7

Clear
61 °F
33 °F
0%
55%

Temperature 8-14 Day Outlook



Precipitation 8-14 Day Outlook




Quick Links
West Point Lake News
West Point Lake Photos
West Point Lake Videos




About Us
Contact Us
Site Map
Search Site
Advertise With Us
   
www.WestPointLake.info
THE WEST POINT LAKE WEBSITE

Copyright 2022, Lakes Online
Privacy    |    Legal